Simultaneous Nadir Overpasses (SNOs) Predictions

Prediction of SNOs between AQUA and NPP Satellite Orbit:

Table of predicted SNOs for the next 14.0 days since TLE Epoch: 9/21/2019
Index Date (AQUA) Time (AQUA) Lat,Lon (AQUA) SZA (AQUA ) Date (NPP) Time (NPP) Lat,Lon (NPP) SZA (NPP ) Distance(km) Time Diff (sec)
1 09/22/2019 05:32:30 74.69, -27.67 97.86 09/22/2019 05:31:40 74.70, -27.59 97.88 2.53 50
2 09/22/2019 06:21:33 -75.91, 143.34 83.48 09/22/2019 06:22:00 -75.92, 143.43 83.53 2.69 27
3 09/24/2019 21:48:56 74.89, 88.71 98.61 09/24/2019 21:48:31 74.89, 88.72 98.63 0.17 25
4 09/24/2019 22:38:00 -76.06,-100.32 82.68 09/24/2019 22:38:52 -76.06,-100.33 82.72 0.22 52
5 09/27/2019 13:18:46 -65.93, 22.90 71.52 09/27/2019 13:17:32 -66.07, 22.13 71.30 38.01 74
6 09/27/2019 14:05:21 75.13,-154.78 99.31 09/27/2019 14:05:21 75.12,-154.84 99.33 1.82 0
7 09/27/2019 14:52:39 -80.61, 40.84 87.73 09/27/2019 14:53:53 -80.33, 41.68 87.91 34.78 74
8 09/30/2019 05:32:38 -74.45, 151.73 79.02 09/30/2019 05:31:45 -74.45, 151.77 78.98 1.34 53
9 09/30/2019 06:21:36 75.81, -36.98 99.53 09/30/2019 06:22:00 75.82, -36.90 99.49 2.41 24
10 10/02/2019 21:49:03 -74.69, -91.81 78.31 10/02/2019 21:48:35 -74.69, -91.83 78.28 0.73 28




NCC Satellite Simultaneous Nadir Overpasses (SNOs) Prediction Service
